Left ArrowRight Arrow

46.40834, -105.84056

Hourly Observations for June 18, 2024

Temp ( °F °C ) Dew Point ( °F °C ) Humidity (%) Winds ( mph kmh ) Pressure ( in mb ) Visibility ( mi km ) Precip ( " mm )
12:53 am 00:53 Cloudy with Light Rain 52 11.1 50 10 93 93 N 3 6 29.64 1004 10 16 0.01 0.13
1:20 am 01:20 Cloudy with Light Rain 52 11.1 50 10 93 93 N 8 13 29.66 1004 10 16 0.01 0.13
1:37 am 01:37 Cloudy with Light Rain 52 11.1 50 10 93 93 N 8 13 29.67 1005 10 16 0.01 0.13
1:53 am 01:53 Cloudy with Light Rain 51 10.6 50 10 96 96 NE 13 20 29.63 1004 10 16 0.01 0.25
2:53 am 02:53 Cloudy 50 10 49 9.4 96 96 ENE 9 15 29.65 1004 10 16 0.01 0.13
3:19 am 03:19 Cloudy with Light Rain 50 10 49 9.4 96 96 ENE 9 15 29.71 1006 10 16 0.01 0.13
3:26 am 03:26 Cloudy 50 10 48 8.9 93 93 ENE 8 13 29.71 1006 10 16 0.01 0.13
3:46 am 03:46 Cloudy with Heavy Rain 50 10 49 9.4 96 96 S 6 9 29.72 1006 4 6 0.03 0.76
3:53 am 03:53 Cloudy with Light Rain 50 10 49 9.4 96 96 SSW 7 11 29.69 1005 9 14 0.03 0.76
4:00 am 04:00 Cloudy with Light Rain 50 10 49 9.4 96 96 SW 12 19 29.73 1007 10 16 0.01 0.13
4:53 am 04:53 Cloudy 48 8.9 46 7.8 93 93 SW 15 24 29.70 1006 10 16 0.01 0.13
5:05 am 05:05 Cloudy 48 8.9 46 7.8 93 93 SW 13 20 29.74 1007 10 16 0.00 0.00
5:31 am 05:31 Cloudy 47 8.3 46 7.8 97 97 WSW 10 17 29.74 1007 10 16 0.00 0.00
5:53 am 05:53 Mostly Cloudy 47 8.3 45 7.2 93 93 SW 16 26 29.71 1006 10 16 0.00 0.00
6:13 am 06:13 Partly Cloudy 47 8.3 44 6.7 90 90 SW 16 26 29.74 1007 10 16 0.00 0.00
6:35 am 06:35 Mostly Cloudy 47 8.3 45 7.2 93 93 SW 15 24 29.75 1008 10 16 0.00 0.00
6:53 am 06:53 Cloudy 47 8.3 45 7.2 93 93 SW 15 24 29.74 1007 10 16 0.00 0.00
7:21 am 07:21 Cloudy 48 8.9 45 7.2 89 89 SW 18 30 29.75 1007 10 16 0.00 0.00
7:53 am 07:53 Cloudy 48 8.9 45 7.2 89 89 SSW 14 22 29.74 1007 10 16 0.00 0.00
8:53 am 08:53 Cloudy 54 12.2 49 9.4 83 83 NW 18 30 29.72 1007 10 16 0.00 0.00
9:04 am 09:04 Cloudy 53 11.7 49 9.4 86 86 NW 23 37 29.72 1006 10 16 0.00 0.00
9:32 am 09:32 Cloudy 49 9.4 46 7.8 90 90 WNW 24 39 29.77 1008 10 16 0.00 0.00
9:53 am 09:53 Cloudy with Light Rain 47 8.3 45 7.2 93 93 WNW 26 43 29.79 1009 5 8 0.01 0.13
10:20 am 10:20 Cloudy with Light Rain 46 7.8 45 7.2 96 96 WNW 22 35 29.83 1010 2 3 0.01 0.25
10:35 am 10:35 Cloudy with Light Rain 46 7.8 45 7.2 96 96 WNW 26 43 29.84 1010 2 3 0.03 0.76
10:53 am 10:53 Cloudy with Light Rain 46 7.8 45 7.2 96 96 WNW 25 41 29.83 1010 3 5 0.04 1.02
11:25 am 11:25 Cloudy with Light Rain 46 7.8 45 7.2 96 96 WNW 28 44 29.86 1011 3 5 0.02 0.51
11:33 am 11:33 Cloudy with Light Rain 46 7.8 45 7.2 96 96 WNW 24 39 29.86 1011 3 5 0.02 0.51
11:53 am 11:53 Cloudy with Light Rain 47 8.3 46 7.8 97 97 NW 26 43 29.86 1011 6 10 0.03 0.76
12:07 pm 12:07 Cloudy with Light Rain 47 8.3 46 7.8 97 97 WNW 26 43 29.88 1012 5 8 0.01 0.25
12:33 pm 12:33 Cloudy with Rain 46 7.8 44 6.7 93 93 NW 22 35 29.91 1013 4 6 0.05 1.27
12:41 pm 12:41 Cloudy with Light Rain 46 7.8 44 6.7 93 93 NW 21 33 29.92 1013 8 13 0.05 1.27
12:53 pm 12:53 Cloudy with Rain 46 7.8 44 6.7 93 93 NNW 23 37 29.92 1013 4 6 0.06 1.52
1:53 pm 13:53 Cloudy with Light Rain 45 7.2 43 6.1 93 93 NNW 21 33 29.97 1015 8 13 0.03 0.76
2:18 pm 14:18 Cloudy with Light Rain 46 7.8 44 6.7 93 93 NNW 22 35 29.99 1016 8 13 0.02 0.51
2:45 pm 14:45 Cloudy with Light Rain 46 7.8 42 5.6 86 86 N 17 28 30.01 1016 10 16 0.03 0.76
2:53 pm 14:53 Cloudy with Light Rain 46 7.8 42 5.6 86 86 N 21 33 30.01 1016 10 16 0.03 0.76
3:53 pm 15:53 Cloudy with Light Rain 47 8.3 44 6.7 90 90 N 14 22 30.04 1017 9 14 0.01 0.25
4:14 pm 16:14 Cloudy with Light Rain 47 8.3 43 6.1 86 86 N 16 26 30.06 1018 10 16 0.01 0.13
4:32 pm 16:32 Cloudy with Light Rain 47 8.3 43 6.1 86 86 N 13 20 30.06 1018 8 13 0.01 0.25
4:53 pm 16:53 Cloudy with Light Rain 47 8.3 44 6.7 90 90 N 12 19 30.08 1019 6 10 0.02 0.51
5:51 pm 17:51 Cloudy 46 8 43 6 87 87 NNW 10 17 30.10 1019 10 16 0.02 0.51
5:53 pm 17:53 Cloudy 47 8.3 43 6.1 86 86 NNW 10 17 30.11 1020 10 16 0.02 0.51
6:53 pm 18:53 Mostly Cloudy 48 8.9 44 6.7 86 86 NW 7 11 30.12 1020 10 16 0.00 0.00
7:53 pm 19:53 Sunny 50 10 42 5.6 74 74 NW 3 6 30.14 1021 10 16 0.00 0.00
8:53 pm 20:53 Sunny 47 8.3 43 6.1 86 86 Calm 30.16 1021 10 16 0.00 0.00
9:53 pm 21:53 Clear 46 7.8 41 5 82 82 S 3 6 30.19 1022 10 16 0.00 0.00
10:53 pm 22:53 Clear 42 5.6 41 5 96 96 S 7 11 30.21 1023 10 16 0.00 0.00
11:53 pm 23:53 Clear 42 5.6 40 4.4 92 92 S 7 11 30.22 1023 10 16 0.00 0.00

Powered by Vaisala Xweather